Time,TemperatureF,DewpointF,PressureIn,WindDirection,WindDirectionDegrees,WindSpeedMPH,WindSpeedGustMPH,Humidity,HourlyPrecipIn,Conditions,Clouds,dailyrainin,SoftwareType,DateUTC
2013-10-31 00:43:00,65.0,-99.9,-100.00,SW,235,2.0,-999.0,-999,-99.99,,,0.00,,2013-10-31 04:43:00,
2013-10-31 01:43:00,64.0,-99.9,-100.00,SSW,208,2.0,-999.0,-999,-99.99,,,-99.99,,2013-10-31 05:43:00,
2013-10-31 02:42:00,60.0,-99.9,-100.00,West,270,1.0,-999.0,-999,-99.99,,,0.00,,2013-10-31 06:42:00,
2013-10-31 03:42:00,60.0,-99.9,-100.00,SE,134,1.0,-999.0,-999,-99.99,,,0.00,,2013-10-31 07:42:00,
2013-10-31 04:22:00,60.0,-99.9,-100.00,West,278,1.0,-999.0,-999,-99.99,,,-99.99,,2013-10-31 08:22:00,
2013-10-31 04:42:00,59.0,-99.9,-100.00,West,272,1.0,-999.0,-999,-99.99,,,0.00,,2013-10-31 08:42:00,
2013-10-31 06:42:00,59.0,-99.9,-100.00,NW,315,2.0,-999.0,-999,-99.99,,,0.00,,2013-10-31 10:42:00,
2013-10-31 07:42:00,59.0,-99.9,-100.00,South,173,1.0,-999.0,-999,-99.99,,,0.00,,2013-10-31 11:42:00,
2013-10-31 07:52:00,59.0,-99.9,-100.00,South,173,1.0,-999.0,-999,-99.99,,,0.00,,2013-10-31 11:52:00,
2013-10-31 08:02:00,59.0,-99.9,-100.00,South,173,1.0,-999.0,-999,-99.99,,,0.00,,2013-10-31 12:02:00,
2013-10-31 08:22:00,59.0,-99.9,-100.00,NW,310,1.0,-999.0,-999,-99.99,,,0.00,,2013-10-31 12:22:00,
2013-10-31 08:32:00,59.0,-99.9,-100.00,NW,310,1.0,-999.0,-999,-99.99,,,0.00,,2013-10-31 12:32:00,
2013-10-31 08:53:00,58.0,-99.9,-100.00,West,281,1.0,-999.0,-999,-99.99,,,0.00,,2013-10-31 12:53:00,
2013-10-31 09:02:00,58.0,-99.9,-100.00,West,281,1.0,-999.0,-999,-99.99,,,0.00,,2013-10-31 13:02:00,
2013-10-31 09:22:00,60.0,-99.9,-100.00,WNW,297,1.0,-999.0,-999,-99.99,,,0.00,,2013-10-31 13:22:00,
2013-10-31 09:42:00,61.0,-99.9,-100.00,WSW,253,2.0,-999.0,-999,-99.99,,,0.00,,2013-10-31 13:42:00,
2013-10-31 09:52:00,61.0,-99.9,-100.00,WSW,253,2.0,-999.0,-999,-99.99,,,0.00,,2013-10-31 13:52:00,
2013-10-31 10:02:00,61.0,-99.9,-100.00,WSW,253,2.0,-999.0,-999,-99.99,,,0.00,,2013-10-31 14:02:00,
2013-10-31 10:42:00,63.0,-99.9,-100.00,SSW,213,3.0,-999.0,-999,-99.99,,,0.00,,2013-10-31 14:42:00,
2013-10-31 10:52:00,63.0,-99.9,-100.00,SSW,213,3.0,-999.0,-999,-99.99,,,0.00,,2013-10-31 14:52:00,
2013-10-31 11:11:00,62.0,-99.9,-100.00,SW,228,3.0,-999.0,-999,-99.99,,,0.00,,2013-10-31 15:11:00,
2013-10-31 11:22:00,62.0,-99.9,-100.00,SW,228,3.0,-999.0,-999,-99.99,,,0.00,,2013-10-31 15:22:00,
2013-10-31 12:23:00,63.0,-99.9,-100.00,West,264,3.0,-999.0,-999,-99.99,,,-99.99,,2013-10-31 16:23:00,
2013-10-31 12:43:00,66.0,-99.9,-100.00,SSW,196,6.0,-999.0,-999,-99.99,,,-99.99,,2013-10-31 16:43:00,
2013-10-31 12:53:00,66.0,-99.9,-100.00,SSW,196,6.0,-999.0,-999,-99.99,,,-99.99,,2013-10-31 16:53:00,
2013-10-31 13:03:00,66.0,-99.9,-100.00,SSW,196,6.0,-999.0,-999,-99.99,,,-99.99,,2013-10-31 17:03:00,
2013-10-31 13:22:00,68.0,-99.9,-100.00,SSW,199,8.0,-999.0,-999,-99.99,,,-99.99,,2013-10-31 17:22:00,
2013-10-31 13:43:00,68.0,-99.9,-100.00,SSW,197,7.0,-999.0,-999,-99.99,,,-99.99,,2013-10-31 17:43:00,
2013-10-31 13:52:00,68.0,-99.9,-100.00,SSW,197,7.0,-999.0,-999,-99.99,,,-99.99,,2013-10-31 17:52:00,
2013-10-31 14:02:00,68.0,-99.9,-100.00,SSW,197,7.0,-999.0,-999,-99.99,,,-99.99,,2013-10-31 18:02:00,
2013-10-31 14:22:00,69.0,-99.9,-100.00,SSW,193,8.0,-999.0,-999,-99.99,,,-99.99,,2013-10-31 18:22:00,
2013-10-31 14:32:00,69.0,-99.9,-100.00,SSW,193,8.0,-999.0,-999,-99.99,,,-99.99,,2013-10-31 18:32:00,
2013-10-31 14:52:00,70.0,-99.9,-100.00,SSW,195,9.0,-999.0,-999,-99.99,,,-99.99,,2013-10-31 18:52:00,
2013-10-31 15:01:00,70.0,-99.9,-100.00,SSW,195,9.0,-999.0,-999,-99.99,,,-99.99,,2013-10-31 19:01:00,
2013-10-31 15:22:00,70.0,-99.9,-100.00,South,185,11.0,-999.0,-999,-99.99,,,-99.99,,2013-10-31 19:22:00,
2013-10-31 15:42:00,71.0,-99.9,-100.00,South,188,9.0,-999.0,-999,-99.99,,,-99.99,,2013-10-31 19:42:00,
2013-10-31 15:52:00,71.0,-99.9,-100.00,South,188,9.0,-999.0,-999,-99.99,,,-99.99,,2013-10-31 19:52:00,
2013-10-31 16:02:00,71.0,-99.9,-100.00,South,188,9.0,-999.0,-999,-99.99,,,-99.99,,2013-10-31 20:02:00,
2013-10-31 16:22:00,70.0,-99.9,-100.00,South,185,8.0,-999.0,-999,-99.99,,,-99.99,,2013-10-31 20:22:00,
2013-10-31 16:32:00,70.0,-99.9,-100.00,South,185,8.0,-999.0,-999,-99.99,,,-99.99,,2013-10-31 20:32:00,
2013-10-31 16:52:00,71.0,-99.9,-100.00,South,186,8.0,-999.0,-999,-99.99,,,-99.99,,2013-10-31 20:52:00,
2013-10-31 17:02:00,71.0,-99.9,-100.00,South,186,8.0,-999.0,-999,-99.99,,,-99.99,,2013-10-31 21:02:00,
2013-10-31 17:22:00,72.0,-99.9,-100.00,South,183,8.0,-999.0,-999,-99.99,,,-99.99,,2013-10-31 21:22:00,
2013-10-31 17:44:00,72.0,-99.9,-100.00,South,185,8.0,-999.0,-999,-99.99,,,-99.99,,2013-10-31 21:44:00,
2013-10-31 17:54:00,72.0,-99.9,-100.00,South,185,8.0,-999.0,-999,-99.99,,,-99.99,,2013-10-31 21:54:00,
2013-10-31 18:04:00,72.0,-99.9,-100.00,South,185,8.0,-999.0,-999,-99.99,,,-99.99,,2013-10-31 22:04:00,
2013-10-31 18:24:00,72.0,-99.9,-100.00,South,183,9.0,-999.0,-999,-99.99,,,-99.99,,2013-10-31 22:24:00,
2013-10-31 18:34:00,72.0,-99.9,-100.00,South,183,9.0,-999.0,-999,-99.99,,,-99.99,,2013-10-31 22:34:00,
2013-10-31 18:43:00,72.0,-99.9,-100.00,South,183,9.0,-999.0,-999,-99.99,,,-99.99,,2013-10-31 22:43:00,
2013-10-31 19:12:00,70.0,-99.9,-100.00,South,190,7.0,-999.0,-999,-99.99,,,-99.99,,2013-10-31 23:12:00,
2013-10-31 19:43:00,70.0,-99.9,-100.00,South,190,7.0,-999.0,-999,-99.99,,,-99.99,,2013-10-31 23:43:00,
2013-10-31 20:12:00,72.0,-99.9,-100.00,South,188,10.0,-999.0,-999,-99.99,,,-99.99,,2013-11-01 00:12:00,
2013-10-31 20:52:00,71.0,-99.9,-100.00,South,188,9.0,-999.0,-999,-99.99,,,-99.99,,2013-11-01 00:52:00,
2013-10-31 21:00:00,69.0,-99.9,-100.00,South,180,11.0,-999.0,-999,-99.99,,,-99.99,,2013-11-01 01:00:00,
2013-10-31 21:12:00,70.0,-99.9,-100.00,South,189,9.0,-999.0,-999,-99.99,,,-99.99,,2013-11-01 01:12:00,
2013-10-31 21:42:00,69.0,-99.9,-100.00,South,180,11.0,-999.0,-999,-99.99,,,-99.99,,2013-11-01 01:42:00,
2013-10-31 21:52:00,69.0,-99.9,-100.00,South,180,11.0,-999.0,-999,-99.99,,,-99.99,,2013-11-01 01:52:00,
2013-10-31 22:22:00,69.0,-99.9,-100.00,South,178,15.0,-999.0,-999,-99.99,,,-99.99,,2013-11-01 02:22:00,
2013-10-31 22:42:00,69.0,-99.9,-100.00,South,177,16.0,-999.0,-999,-99.99,,,-99.99,,2013-11-01 02:42:00,
2013-10-31 22:52:00,69.0,-99.9,-100.00,South,177,16.0,-999.0,-999,-99.99,,,-99.99,,2013-11-01 02:52:00,
2013-10-31 23:12:00,69.0,-99.9,-100.00,South,181,15.0,-999.0,-999,-99.99,,,-99.99,,2013-11-01 03:12:00,
2013-10-31 23:22:00,69.0,-99.9,-100.00,South,181,15.0,-999.0,-999,-99.99,,,-99.99,,2013-11-01 03:22:00,
2013-10-31 23:45:00,69.0,-99.9,-100.00,SSW,194,12.0,-999.0,-999,-99.99,,,-99.99,,2013-11-01 03:45:00,
2013-10-31 23:54:00,69.0,-99.9,-100.00,SSW,194,12.0,-999.0,-999,-99.99,,,-99.99,,2013-11-01 03:54:00,